Weather History for Elkins, WV

Change the Weather History Date:

Tuesday, August 6, 2013

  Actual Average Record
Temperature  
Mean Temperature 71 °F 70 °F  
Max Temperature 82 °F 81 °F 99 °F (1918)
Min Temperature 59 °F 59 °F 43 °F (1957)
Degree Days  
Heating Degree Days 0 0  
Month to date heating degree days 3 0  
Since 1 June heating degree days 19 67  
Since 1 July heating degree days 7 12  
Cooling Degree Days 6 5  
Month to date cooling degree days 16 30  
Year to date cooling degree days 346 311  
Since 1 June cooling degree days 321 288  
Growing Degree Days 20 (Base 50)    
Moisture  
Dew Point 58 °F    
Average Humidity 69    
Maximum Humidity 93    
Minimum Humidity 45    
Precipitation  
Precipitation 0.23 in 0.13 in 2.01 in (1995)
Month to date precipitation 0.34 0.81  
Year to date precipitation 25.22 29.78  
Snow  
Snow 0.00 in - - ()
Month to date snowfall 0.0  
Since 1 September snowfall 77.5  
Snow Depth 0.00 in    
Sea Level Pressure  
Sea Level Pressure 30.05 in    
Wind  
Wind Speed 1 mph (West)    
Max Wind Speed 6 mph    
Max Gust Speed 10 mph    
Visibility 10 miles    
Events Rain    
T = Trace of Precipitation, MM = Missing Value Source: NWS Daily Summary

Daily Weather History Graph

Daily Weather History Graph

Search for Another Location

Airport:

Trip Planner

Search our weather history database for the weather conditions in past years. The results will help you decide how hot, cold, wet, or windy it might be!

Date:

Astronomy

Aug. 06, 2013 Rise Set
Actual Time 6:25 AM EDT 8:24 PM EDT
Civil Twilight 5:55 AM EDT 8:53 PM EDT
Nautical Twilight 5:20 AM EDT 9:29 PM EDT
Astronomical Twilight 4:41 AM EDT 10:07 PM EDT
Moon 6:14 AM EDT (8/6) 7:59 PM EDT (8/6)
Length of Visible Light 14h 58m
Length of Day
13h 59m
Waning Crescent, 0% of the Moon is Illuminated
Aug 6
Waning Crescent
Aug 6
New
Aug 14
First Quarter
Aug 20
Full
Aug 28
Last Quarter

Hourly Weather History & Observations

Time (EDT) Temp. Heat Index Dew Point Humidity Pressure Visibility Wind Dir Wind Speed Gust Speed Precip Events Conditions
12:51 AM 61.0 °F - 55.9 °F 83% 30.04 in 10.0 mi Calm Calm - N/A   Overcast
1:51 AM 62.1 °F - 55.9 °F 80% 30.04 in 10.0 mi Calm Calm - N/A   Overcast
2:51 AM 60.1 °F - 57.9 °F 93% 30.04 in 10.0 mi Calm Calm - 0.03 in Rain Light Rain
3:51 AM 60.1 °F - 57.9 °F 93% 30.03 in 10.0 mi Calm Calm - 0.07 in Rain Rain
4:40 AM 60.8 °F - 57.2 °F 88% 30.06 in 10.0 mi Calm Calm - 0.10 in Rain Light Rain
4:51 AM 60.1 °F - 57.9 °F 93% 30.04 in 10.0 mi WNW 3.5 mph - 0.11 in Rain Light Rain
5:17 AM 60.8 °F - 57.2 °F 88% 30.07 in 10.0 mi Calm Calm - 0.01 in Rain Light Rain
5:37 AM 59.0 °F - 57.2 °F 94% 30.06 in 10.0 mi Calm Calm - 0.02 in Rain Light Rain
5:51 AM 60.1 °F - 57.9 °F 93% 30.04 in 10.0 mi West 3.5 mph - 0.02 in Rain Light Rain
6:14 AM 59.0 °F - 57.2 °F 94% 30.06 in 10.0 mi Calm Calm - 0.00 in   Overcast
6:51 AM 59.0 °F - 57.9 °F 96% 30.05 in 9.0 mi Calm Calm - 0.00 in   Overcast
7:16 AM 60.8 °F - 57.2 °F 88% 30.06 in 10.0 mi Calm Calm - N/A   Overcast
7:32 AM 60.8 °F - 57.2 °F 88% 30.07 in 10.0 mi Calm Calm - N/A   Overcast
7:51 AM 61.0 °F - 57.9 °F 90% 30.06 in 10.0 mi Calm Calm - N/A   Overcast
8:07 AM 60.8 °F - 59.0 °F 94% 30.08 in 10.0 mi Calm Calm - N/A   Scattered Clouds
8:51 AM 62.1 °F - 59.0 °F 90% 30.07 in 10.0 mi SE 3.5 mph - N/A   Scattered Clouds
9:51 AM 68.0 °F - 60.1 °F 76% 30.07 in 10.0 mi Calm Calm - N/A   Clear
10:51 AM 72.0 °F - 60.1 °F 66% 30.06 in 10.0 mi Calm Calm - N/A   Partly Cloudy
11:51 AM 72.0 °F - 57.9 °F 61% 30.06 in 10.0 mi Calm Calm - N/A   Partly Cloudy
12:51 PM 75.9 °F - 59.0 °F 56% 30.05 in 10.0 mi Calm Calm - N/A   Partly Cloudy
1:51 PM 78.1 °F - 57.9 °F 50% 30.04 in 10.0 mi Calm Calm - N/A   Clear
2:51 PM 78.1 °F - 59.0 °F 52% 30.03 in 10.0 mi Variable 3.5 mph - N/A   Scattered Clouds
3:51 PM 80.1 °F 80.4 °F 57.0 °F 45% 30.03 in 10.0 mi Variable 4.6 mph - N/A   Clear
4:51 PM 80.1 °F 80.6 °F 57.9 °F 47% 30.01 in 10.0 mi West 3.5 mph - N/A   Clear
5:51 PM 81.0 °F 81.3 °F 59.0 °F 47% 30.01 in 10.0 mi Calm Calm - N/A   Clear
6:51 PM 78.1 °F - 60.1 °F 54% 30.02 in 10.0 mi NW 3.5 mph - N/A   Clear
7:51 PM 75.9 °F - 61.0 °F 60% 30.02 in 10.0 mi Calm Calm - N/A   Clear
8:51 PM 66.9 °F - 63.0 °F 87% 30.04 in 10.0 mi Calm Calm - N/A   Clear
9:51 PM 64.9 °F - 61.0 °F 87% 30.04 in 10.0 mi Calm Calm - N/A   Clear
10:51 PM 63.0 °F - 60.1 °F 90% 30.05 in 10.0 mi Calm Calm - N/A   Clear
11:51 PM 62.1 °F - 59.0 °F 90% 30.05 in 10.0 mi Calm Calm - N/A   Clear